Regional Weather Roundup
Issued by NWS

Home | Current Version | Previous Version | Text Only | Print | Product List | Glossary Off
Versions: 1 2 3 4 5 6 7 8 9 10 11 12 13 14 15 16 17 18 19 20 21 22 23 24 25 26 27 28 29 30 31 32 33 34 35 36 37 38 39 40 41 42 43 44 45 46 47 48 49 50

000
ASUS43 KOAX 050110
RWRNE

WEATHER ROUNDUP FOR NEBRASKA
NATIONAL WEATHER SERVICE OMAHA NE
800 PM CDT FRI SEP 04 2015

NOTES: SATELLITE DATA IS BEING USED TO AUGMENT CLOUD COVER ABOVE
       12000 FEET.
       "FAIR" INDICATES FEW OR NO CLOUDS BELOW 12,000 FEET WITH NO
       SIGNIFICANT WEATHER AND/OR OBSTRUCTIONS TO VISIBILITY.

  * THESE STATIONS DO NOT REPORT WEATHER SUCH AS RAIN...SNOW OR FOG.

NEZ001>004-019>022-054>056-050200-
NEBRASKA PANHANDLE

CITY           SKY/WX    TMP DP  RH WIND       PRES   REMARKS
SCOTTSBLUFF    CLOUDY    81  49  32 E8        29.85F
ALLIANCE       PTCLDY    78  47  33 SE8       29.86R
CHADRON        MOCLDY    85  52  32 SE5       29.80S
KIMBALL        MOCLDY    76  43  31 SW6       29.92S
SIDNEY         PTCLDY    82  45  27 SE9       29.90S
$$

NEZ057>060-069>072-079>082-050200-
SOUTHWEST NEBRASKA

CITY           SKY/WX    TMP DP  RH WIND       PRES   REMARKS
NORTH PLATTE   PTCLDY    78  66  66 S3        29.83R
IMPERIAL       PTCLDY    82  56  40 NE8       29.84S
LEXINGTON      PTCLDY    82  67  59 E6        29.82S
MCCOOK         CLEAR     90  55  30 SE7       29.80S
OGALLALA       MOCLDY    86  54  33 SE7       29.85S
$$

NEZ005>010-023>029-035>040-094-050200-
NORTH CENTRAL NEBRASKA

CITY           SKY/WX    TMP DP  RH WIND       PRES   REMARKS
VALENTINE      MOCLDY    86  60  41 SE8       29.80R
AINSWORTH      MOCLDY    81  67  61 SE5       29.82S
BROKEN BOW     PTCLDY    81  68  64 CALM      29.82S
O`NEILL        CLEAR     83  67  57 SE3       29.81S
ORD            CLEAR     87  63  44 SE5       29.79S
THEDFORD       PTCLDY    86  57  37 SE8       29.84S
$$

NEZ041-046>049-061>064-073>077-083>087-050200-
SOUTH CENTRAL NEBRASKA

CITY           SKY/WX    TMP DP  RH WIND       PRES   REMARKS
GRAND ISLAND   CLEAR     85  67  54 SE15G22   29.82R
AURORA         CLEAR     83  67  58 S10       29.83R
HASTINGS       CLEAR     88  64  44 S14       29.82R
HEBRON         CLEAR     84  63  48 SE13      29.85R
HOLDREGE       CLEAR     83  59  43 SE6       29.82R
KEARNEY *      CLEAR     84  63  48 S9        29.81S
YORK           CLEAR     84  68  58 S14G20    29.84S
$$

NEZ011>018-030>034-042>045-050200-
NORTHEAST NEBRASKA

CITY           SKY/WX    TMP DP  RH WIND       PRES   REMARKS
NORFOLK        CLEAR     82  70  66 SE9       29.82S
ALBION         PTCLDY    81  69  66 SE7       29.82S
BLAIR          PTCLDY    82  67  60 SE9       29.88R
COLUMBUS *     CLEAR     82  66  57 SE9       29.83S
FREMONT        PTCLDY    83  67  58 SE8       29.86S
TEKAMAH        PTCLDY    81  72  74 SE10      29.85S
WAYNE          CLEAR     80  73  81 SE10      29.84S
$$

NEZ050>053-065>068-078-088>093-050200-
SOUTHEAST NEBRASKA

CITY           SKY/WX    TMP DP  RH WIND       PRES   REMARKS
LINCOLN        CLEAR     84  65  52 S10       29.86R
OMAHA EPPLEY   PTCLDY    84  69  60 SE17      29.87R
BEATRICE       CLEAR     84  66  54 S9        29.88R
FALLS CITY     CLEAR     82  66  58 S10       29.89S
NEBRASKA CITY  CLEAR     80  62  52 S9        29.89S
PLATTSMOUTH    PTCLDY    81  66  60 SE8       29.89R
$$

NEZ044-045-051>053-067-050200-
OMAHA AREA

CITY           SKY/WX    TMP DP  RH WIND       PRES   REMARKS
OMAHA EPPLEY   PTCLDY    84  69  60 SE17      29.87R
BLAIR          PTCLDY    82  67  60 SE9       29.88R
FREMONT        PTCLDY    83  67  58 SE8       29.86S
MILLARD        PTCLDY    82  70  65 SE8       29.87R
OFFUTT AFB     PTCLDY    81  70  68 SE12      29.87R
PLATTSMOUTH    PTCLDY    81  66  60 SE8       29.89R
WAHOO          FAIR      79  71  75 SE8       29.85S
$$



USA.gov is the U.S. government's official web portal to all federal, state and local government web resources and services.